EN

Hourly Weather Abovyan

Today, 27 November, Friday

Time Temperature Precipitation Wind Pressure Humidity
00:00 +1°C° 0 mm 2 mps 672 mmHg 49%
01:00 +1°C° 0 mm 2 mps 672 mmHg 50%
02:00 -1°C° 0 mm 2 mps 673 mmHg 50%
03:00 +1°C° 0 mm 1 mps 673 mmHg 52%
04:00 +1°C° 0 mm 1 mps 673 mmHg 52%
05:00 0°C° 0 mm 1 mps 674 mmHg 53%
06:00 0°C° 0 mm 1 mps 674 mmHg 53%
07:00 +1°C° 0 mm 1 mps 675 mmHg 50%
08:00 +2°C° 0 mm 1 mps 675 mmHg 46%
09:00 +3°C° 0 mm 1 mps 676 mmHg 43%
10:00 +4°C° 0 mm 1 mps 676 mmHg 41%
11:00 +6°C° 0 mm 1 mps 676 mmHg 39%
12:00 +7°C° 0 mm 1 mps 676 mmHg 36%
13:00 +7°C° 0 mm 1 mps 676 mmHg 36%
14:00 +7°C° 0 mm 1 mps 676 mmHg 36%
15:00 +7°C° 0 mm 1 mps 676 mmHg 36%
16:00 +6°C° 0 mm 1 mps 676 mmHg 39%
17:00 +5°C° 0 mm 1 mps 677 mmHg 41%
18:00 +4°C° 0 mm 1 mps 677 mmHg 44%
19:00 +3°C° 0 mm 1 mps 678 mmHg 44%
20:00 +3°C° 0 mm 1 mps 678 mmHg 44%
21:00 +3°C° 0 mm 1 mps 678 mmHg 44%
22:00 +2°C° 0 mm 1 mps 678 mmHg 44%
23:00 +2°C° 0 mm 1 mps 678 mmHg 44%

Tomorrow, 28 November, Saturday

Time Temperature Precipitation Wind Pressure Humidity
00:00 +2°C° 0 mm 1 mps 678 mmHg 44%
01:00 +1°C° 0 mm 1 mps 678 mmHg 45%
02:00 +1°C° 0 mm 1 mps 678 mmHg 45%
03:00 +1°C° 0 mm 1 mps 678 mmHg 46%
04:00 0°C° 0 mm 1 mps 678 mmHg 47%
05:00 0°C° 0 mm 1 mps 677 mmHg 48%
06:00 0°C° 0 mm 1 mps 677 mmHg 50%
07:00 +1°C° 0 mm 1 mps 678 mmHg 46%
08:00 +3°C° 0 mm 1 mps 678 mmHg 42%
09:00 +4°C° 0 mm 1 mps 678 mmHg 39%
10:00 +5°C° 0 mm 1 mps 678 mmHg 37%
11:00 +6°C° 0 mm 1 mps 677 mmHg 36%
12:00 +7°C° 0 mm 1 mps 677 mmHg 35%
13:00 +7°C° 0 mm 1 mps 676 mmHg 35%
14:00 +8°C° 0 mm 1 mps 676 mmHg 35%
15:00 +8°C° 0 mm 1 mps 676 mmHg 35%
16:00 +7°C° 0 mm 1 mps 676 mmHg 39%
17:00 +4°C° 0 mm 0 mps 676 mmHg 42%
18:00 +3°C° 0 mm 0 mps 676 mmHg 45%
19:00 +3°C° 0 mm 0 mps 676 mmHg 47%
20:00 +3°C° 0 mm 0 mps 676 mmHg 48%
21:00 +3°C° 0 mm 0 mps 676 mmHg 49%
22:00 +2°C° 0 mm 0 mps 676 mmHg 51%
23:00 +2°C° 0 mm 0 mps 675 mmHg 53%

Day after tomorrow, 29 November, Sunday

Time Temperature Precipitation Wind Pressure Humidity
00:00 +2°C° 0 mm 0 mps 675 mmHg 55%
01:00 +2°C° 0 mm 0 mps 675 mmHg 57%
02:00 +1°C° 0 mm 0 mps 675 mmHg 58%
03:00 +1°C° 0 mm 0 mps 675 mmHg 59%
04:00 +1°C° 0 mm 0 mps 674 mmHg 60%
05:00 +1°C° 0 mm 0 mps 674 mmHg 60%
06:00 +1°C° 0 mm 0 mps 674 mmHg 60%
07:00 +2°C° 0 mm 0 mps 674 mmHg 57%
08:00 +3°C° 0 mm 0 mps 675 mmHg 53%
09:00 +5°C° 0 mm 0 mps 675 mmHg 49%
10:00 +6°C° 0 mm 0 mps 674 mmHg 46%
11:00 +7°C° 0 mm 1 mps 674 mmHg 44%
12:00 +8°C° 0 mm 1 mps 674 mmHg 41%
13:00 +8°C° 0 mm 1 mps 673 mmHg 41%
14:00 +9°C° 0 mm 1 mps 673 mmHg 42%
15:00 +9°C° 0 mm 1 mps 672 mmHg 42%
16:00 +8°C° 0 mm 1 mps 673 mmHg 44%
17:00 +7°C° 0 mm 1 mps 673 mmHg 47%
18:00 +6°C° 0 mm 1 mps 673 mmHg 49%
19:00 +6°C° 0 mm 1 mps 673 mmHg 50%
20:00 +6°C° 0 mm 1 mps 673 mmHg 50%
21:00 +6°C° 0 mm 1 mps 673 mmHg 51%
22:00 +5°C° 0 mm 1 mps 673 mmHg 52%
23:00 +5°C° 0 mm 1 mps 672 mmHg 53%

30 November, Monday

Time Temperature Precipitation Wind Pressure Humidity
00:00 +3°C° 0 mm 0 mps 672 mmHg 54%
01:00 +3°C° 0 mm 0 mps 672 mmHg 57%
02:00 +3°C° 0 mm 0 mps 672 mmHg 59%
03:00 +3°C° 0 mm 0 mps 672 mmHg 62%
04:00 +3°C° 0 mm 0 mps 672 mmHg 67%
05:00 +2°C° 0 mm 0 mps 671 mmHg 72%
06:00 +2°C° 0 mm 0 mps 671 mmHg 77%
07:00 +3°C° 0 mm 0 mps 671 mmHg 76%
08:00 +3°C° 0 mm 0 mps 672 mmHg 75%
09:00 +4°C° 0 mm 0 mps 672 mmHg 73%
10:00 +6°C° 0 mm 1 mps 672 mmHg 69%
11:00 +7°C° 0 mm 1 mps 671 mmHg 65%
12:00 +7°C° 0 mm 1 mps 671 mmHg 61%
13:00 +8°C° 0 mm 1 mps 671 mmHg 60%
14:00 +8°C° 0 mm 1 mps 671 mmHg 59%
15:00 +8°C° 0 mm 1 mps 670 mmHg 57%
16:00 +7°C° 0 mm 1 mps 671 mmHg 61%
17:00 +6°C° 0 mm 1 mps 671 mmHg 66%
18:00 +5°C° 0 mm 1 mps 671 mmHg 70%
19:00 +5°C° 0 mm 1 mps 671 mmHg 70%
20:00 +4°C° 0 mm 1 mps 671 mmHg 71%
21:00 +4°C° 0 mm 1 mps 671 mmHg 71%
22:00 +4°C° 0 mm 1 mps 671 mmHg 73%
23:00 +3°C° 0 mm 1 mps 671 mmHg 75%

1 December, Tuesday

Time Temperature Precipitation Wind Pressure Humidity
00:00 +3°C° 0 mm 1 mps 671 mmHg 77%
01:00 +3°C° 0 mm 1 mps 671 mmHg 78%
02:00 +3°C° 0 mm 1 mps 671 mmHg 80%
03:00 +3°C° 0 mm 1 mps 671 mmHg 81%
04:00 +3°C° 0 mm 1 mps 671 mmHg 82%
05:00 +2°C° 0 mm 0 mps 671 mmHg 83%
06:00 +1°C° 0 mm 0 mps 671 mmHg 84%
07:00 +3°C° 0 mm 0 mps 672 mmHg 79%
08:00 +5°C° 0 mm 1 mps 672 mmHg 75%
09:00 +6°C° 0 mm 1 mps 673 mmHg 71%
10:00 +7°C° 0 mm 1 mps 673 mmHg 68%
11:00 +7°C° 0 mm 1 mps 672 mmHg 65%
12:00 +8°C° 0 mm 1 mps 672 mmHg 61%
13:00 +8°C° 0 mm 1 mps 672 mmHg 60%
14:00 +9°C° 0 mm 1 mps 672 mmHg 58%
15:00 +9°C° 0 mm 1 mps 672 mmHg 56%
16:00 +8°C° 0 mm 1 mps 672 mmHg 60%
17:00 +6°C° 0 mm 1 mps 672 mmHg 64%
18:00 +5°C° 0 mm 1 mps 672 mmHg 69%
19:00 +5°C° 0 mm 1 mps 672 mmHg 69%
20:00 +5°C° 0 mm 1 mps 672 mmHg 70%
21:00 +5°C° 0 mm 1 mps 672 mmHg 70%
22:00 +4°C° 0 mm 1 mps 672 mmHg 72%
23:00 +4°C° 0 mm 1 mps 672 mmHg 74%

2 December, Wednesday

Time Temperature Precipitation Wind Pressure Humidity
00:00 +4°C° 0 mm 1 mps 672 mmHg 76%
01:00 +4°C° 0 mm 1 mps 672 mmHg 77%
02:00 +3°C° 0 mm 1 mps 672 mmHg 78%
03:00 +3°C° 0 mm 1 mps 672 mmHg 79%
04:00 +3°C° 0 mm 1 mps 672 mmHg 80%
05:00 +3°C° 0 mm 1 mps 671 mmHg 81%
06:00 +3°C° 0 mm 1 mps 671 mmHg 81%
07:00 +4°C° 0 mm 1 mps 672 mmHg 77%
08:00 +5°C° 0 mm 1 mps 672 mmHg 72%
09:00 +6°C° 0 mm 1 mps 672 mmHg 67%
10:00 +7°C° 0 mm 1 mps 672 mmHg 63%
11:00 +8°C° 0 mm 1 mps 672 mmHg 60%
12:00 +9°C° 0 mm 1 mps 671 mmHg 56%
13:00 +9°C° 0 mm 1 mps 671 mmHg 55%
14:00 +9°C° 0 mm 1 mps 671 mmHg 54%
15:00 +10°C° 0 mm 1 mps 670 mmHg 53%
16:00 +8°C° 0 mm 1 mps 670 mmHg 58%
17:00 +6°C° 0 mm 0 mps 670 mmHg 63%
18:00 +4°C° 0 mm 0 mps 670 mmHg 67%
19:00 +4°C° 0 mm 0 mps 671 mmHg 68%
20:00 +4°C° 0 mm 0 mps 671 mmHg 68%
21:00 +3°C° 0 mm 0 mps 671 mmHg 68%
22:00 +4°C° 0 mm 1 mps 671 mmHg 69%
23:00 +4°C° 0 mm 1 mps 671 mmHg 70%
Show more